TimeCST,TemperatureF,Dew PointF,Humidity,Sea Level PressureIn,VisibilityMPH,Wind Direction,Wind SpeedMPH,Gust SpeedMPH,PrecipitationIn,Events,Conditions,WindDirDegrees,DateUTC
12:15 AM,21.2,1.4,42,30.06,10.0,SSW,8.1,-,N/A,,Overcast,210,2014-01-22 06:15:00
12:35 AM,21.2,3.2,46,30.06,10.0,SW,8.1,-,N/A,,Overcast,220,2014-01-22 06:35:00
12:55 AM,21.2,5.0,50,30.06,10.0,SW,5.8,-,N/A,,Overcast,230,2014-01-22 06:55:00
1:15 AM,23.0,6.8,50,30.05,10.0,WSW,6.9,-,N/A,,Overcast,250,2014-01-22 07:15:00
1:35 AM,24.8,8.6,50,30.05,10.0,West,10.4,-,N/A,,Overcast,280,2014-01-22 07:35:00
1:55 AM,24.8,10.4,54,30.05,10.0,WNW,12.7,18.4,N/A,,Overcast,300,2014-01-22 07:55:00
2:15 AM,26.6,12.2,55,30.05,10.0,NW,11.5,19.6,N/A,,Overcast,310,2014-01-22 08:15:00
2:35 AM,26.6,14.0,59,30.05,10.0,NNW,17.3,24.2,N/A,,Overcast,330,2014-01-22 08:35:00
2:55 AM,26.6,15.8,64,30.06,10.0,NNW,23.0,31.1,N/A,,Overcast,330,2014-01-22 08:55:00
3:15 AM,26.6,15.8,64,30.07,10.0,NNW,18.4,27.6,N/A,,Overcast,330,2014-01-22 09:15:00
3:55 AM,24.8,15.8,69,30.07,10.0,NNW,13.8,20.7,N/A,,Overcast,330,2014-01-22 09:55:00
4:15 AM,24.8,15.8,69,30.07,10.0,NNW,11.5,19.6,N/A,,Overcast,330,2014-01-22 10:15:00
4:35 AM,24.8,15.8,69,30.06,10.0,NW,10.4,17.3,N/A,,Overcast,320,2014-01-22 10:35:00
4:55 AM,24.8,15.8,69,30.06,10.0,NW,8.1,-,N/A,,Overcast,310,2014-01-22 10:55:00
5:15 AM,24.8,15.8,69,30.06,10.0,WNW,5.8,-,N/A,,Overcast,290,2014-01-22 11:15:00
5:35 AM,24.8,15.8,69,30.07,10.0,NW,5.8,-,N/A,,Overcast,310,2014-01-22 11:35:00
5:55 AM,24.8,15.8,69,30.06,10.0,WNW,5.8,-,N/A,,Overcast,300,2014-01-22 11:55:00
6:15 AM,24.8,15.8,69,30.07,10.0,NW,11.5,-,N/A,,Overcast,310,2014-01-22 12:15:00
6:35 AM,24.8,15.8,69,30.09,10.0,NW,20.7,-,N/A,,Overcast,320,2014-01-22 12:35:00
6:55 AM,19.4,10.4,68,30.11,10.0,NW,20.7,35.7,N/A,,Mostly Cloudy,320,2014-01-22 12:55:00
7:15 AM,17.6,8.6,68,30.12,10.0,NNW,20.7,31.1,N/A,,Partly Cloudy,330,2014-01-22 13:15:00
7:35 AM,17.6,8.6,68,30.14,10.0,NW,15.0,25.3,N/A,,Mostly Cloudy,320,2014-01-22 13:35:00
7:55 AM,15.8,8.6,73,30.15,10.0,NNW,12.7,19.6,N/A,,Mostly Cloudy,330,2014-01-22 13:55:00
8:15 AM,15.8,8.6,73,30.16,10.0,NNW,12.7,20.7,N/A,,Scattered Clouds,340,2014-01-22 14:15:00
8:35 AM,17.6,8.6,68,30.16,10.0,NNW,12.7,21.9,N/A,,Partly Cloudy,340,2014-01-22 14:35:00
8:55 AM,17.6,8.6,68,30.17,10.0,NNW,15.0,-,N/A,,Clear,340,2014-01-22 14:55:00
9:15 AM,19.4,8.6,63,30.17,10.0,NNW,13.8,-,N/A,,Clear,340,2014-01-22 15:15:00
9:35 AM,19.4,8.6,63,30.16,10.0,North,11.5,-,N/A,,Clear,360,2014-01-22 15:35:00
9:55 AM,21.2,8.6,58,30.13,10.0,Calm,Calm,11.5,N/A,,Clear,0,2014-01-22 15:55:00
10:15 AM,21.2,6.8,54,30.14,10.0,Variable,3.5,-,N/A,,Clear,0,2014-01-22 16:15:00
10:35 AM,23.0,8.6,54,30.15,10.0,West,11.5,-,N/A,,Clear,280,2014-01-22 16:35:00
10:55 AM,24.8,10.4,54,30.17,10.0,NNW,13.8,19.6,N/A,,Scattered Clouds,330,2014-01-22 16:55:00
11:15 AM,24.8,8.6,50,30.17,10.0,NNW,16.1,-,N/A,,Overcast,330,2014-01-22 17:15:00
11:35 AM,24.8,8.6,50,30.18,10.0,NW,16.1,-,N/A,,Overcast,320,2014-01-22 17:35:00
11:55 AM,23.0,8.6,54,30.18,10.0,NNW,13.8,-,N/A,,Overcast,330,2014-01-22 17:55:00
12:15 PM,24.8,10.4,54,30.18,10.0,NNW,12.7,24.2,N/A,,Overcast,330,2014-01-22 18:15:00
12:35 PM,24.8,10.4,54,30.17,10.0,WNW,11.5,17.3,N/A,,Overcast,300,2014-01-22 18:35:00
12:55 PM,24.8,8.6,50,30.17,10.0,NW,11.5,20.7,N/A,,Overcast,310,2014-01-22 18:55:00
1:15 PM,24.8,10.4,54,30.16,10.0,West,11.5,19.6,N/A,,Overcast,280,2014-01-22 19:15:00
1:35 PM,24.8,10.4,54,30.17,10.0,NW,17.3,-,N/A,,Overcast,310,2014-01-22 19:35:00
1:55 PM,26.6,12.2,55,30.17,10.0,NNW,16.1,-,N/A,,Overcast,330,2014-01-22 19:55:00
2:15 PM,24.8,14.0,64,30.17,10.0,NW,17.3,-,N/A,,Overcast,320,2014-01-22 20:15:00
2:35 PM,24.8,14.0,64,30.18,10.0,NNW,19.6,28.8,N/A,Snow,Light Snow,330,2014-01-22 20:35:00
2:55 PM,24.8,14.0,64,30.19,9.0,NNW,16.1,25.3,N/A,Snow,Light Snow,330,2014-01-22 20:55:00
3:15 PM,24.8,12.2,59,30.21,10.0,NNW,17.3,26.5,N/A,,Overcast,330,2014-01-22 21:15:00
3:35 PM,24.8,12.2,59,30.22,10.0,NNW,18.4,-,N/A,,Mostly Cloudy,330,2014-01-22 21:35:00
3:55 PM,24.8,10.4,54,30.22,-9999.0,North,20.7,-,N/A,,Mostly Cloudy,360,2014-01-22 21:55:00
4:15 PM,23.0,10.4,59,30.24,10.0,NNW,20.7,27.6,N/A,,Overcast,340,2014-01-22 22:15:00
4:35 PM,21.2,10.4,63,30.26,10.0,NNW,24.2,-,N/A,,Overcast,340,2014-01-22 22:35:00
4:55 PM,21.2,6.8,54,30.28,10.0,NNW,23.0,32.2,N/A,,Overcast,340,2014-01-22 22:55:00
5:15 PM,15.8,3.2,58,30.30,10.0,North,27.6,-,N/A,,Overcast,360,2014-01-22 23:15:00
5:35 PM,14.0,-2.2,49,30.31,10.0,NNW,23.0,34.5,N/A,,Scattered Clouds,340,2014-01-22 23:35:00
5:55 PM,12.2,-5.8,45,30.34,10.0,North,20.7,29.9,N/A,,Clear,350,2014-01-22 23:55:00
6:15 PM,10.4,-5.8,48,30.37,10.0,NNW,21.9,31.1,N/A,,Clear,340,2014-01-23 00:15:00
6:35 PM,8.6,-7.6,48,30.39,10.0,NNW,19.6,29.9,N/A,,Clear,340,2014-01-23 00:35:00
6:55 PM,8.6,-5.8,52,30.41,10.0,NNW,23.0,33.4,N/A,,Clear,340,2014-01-23 00:55:00
7:15 PM,6.8,-5.8,56,30.42,10.0,NNW,18.4,26.5,N/A,,Clear,340,2014-01-23 01:15:00
7:35 PM,6.8,-7.6,52,30.43,10.0,NNW,21.9,32.2,N/A,,Clear,340,2014-01-23 01:35:00
7:55 PM,5.0,-9.4,52,30.43,10.0,North,21.9,36.8,N/A,,Clear,350,2014-01-23 01:55:00
8:15 PM,5.0,-9.4,52,30.45,10.0,North,19.6,28.8,N/A,,Clear,350,2014-01-23 02:15:00
8:35 PM,5.0,-7.6,56,30.46,10.0,NNW,19.6,31.1,N/A,,Clear,340,2014-01-23 02:35:00
8:55 PM,3.2,-9.4,56,30.47,10.0,NNW,19.6,32.2,N/A,,Clear,340,2014-01-23 02:55:00
9:15 PM,3.2,-9.4,56,30.48,10.0,NNW,18.4,29.9,N/A,,Clear,340,2014-01-23 03:15:00
9:35 PM,3.2,-9.4,56,30.50,10.0,NNW,16.1,27.6,N/A,,Clear,330,2014-01-23 03:35:00
9:55 PM,3.2,-9.4,56,30.51,10.0,NNW,18.4,24.2,N/A,,Clear,330,2014-01-23 03:55:00
10:15 PM,1.4,-9.4,61,30.52,10.0,NNW,20.7,29.9,N/A,,Clear,340,2014-01-23 04:15:00
10:35 PM,1.4,-9.4,61,30.53,10.0,NNW,18.4,25.3,N/A,,Clear,340,2014-01-23 04:35:00
10:55 PM,1.4,-9.4,61,30.55,10.0,NNW,15.0,-,N/A,,Clear,340,2014-01-23 04:55:00
11:15 PM,1.4,-11.2,56,30.56,10.0,NNW,16.1,25.3,N/A,,Clear,340,2014-01-23 05:15:00
11:35 PM,1.4,-11.2,56,30.58,10.0,NNW,12.7,23.0,N/A,,Clear,340,2014-01-23 05:35:00
11:55 PM,-0.4,-11.2,60,30.59,10.0,NNW,15.0,-,N/A,,Clear,340,2014-01-23 05:55:00